GFSNW_sfc_rhum_144.txt.gz
RH
88 86 84 83 79 77 85 94 74 78 80 79 92 85 64 63 62 58 57 57 57 52 50 53 62 66 58 56 58 56 65 70 86 55 66 64 60 51 54 55 41 63 62 53
91 88 86 82 85 78 93 93 83 85 74 81 88 70 65 66 63 64 60 58 56 52 57 59 68 72 61 58 66 66 62 60 79 50 55 64 66 62 55 54 66 61 50 31
90 90 88 82 80 77 90 85 81 77 75 75 67 68 70 66 63 62 58 58 56 53 55 54 72 75 66 62 66 63 58 59 49 44 46 63 62 66 65 58 84 62 55 48
86 89 90 87 82 80 89 85 66 77 72 58 67 69 65 70 63 65 61 59 59 56 59 59 74 78 78 68 70 73 61 50 77 64 55 61 56 55 63 69 63 52 43 49
84 88 91 90 87 76 87 74 72 72 69 61 66 67 62 61 63 60 64 60 55 56 57 54 58 68 73 68 82 76 71 54 80 76 62 67 66 60 56 61 58 60 54 58
83 88 91 91 89 79 90 90 81 66 64 60 56 61 56 54 54 61 58 56 58 61 60 62 66 63 60 65 71 78 78 81 85 60 77 62 42 51 56 61 55 48 58 44
77 86 89 91 88 84 91 92 86 72 68 59 48 55 55 61 62 60 60 60 59 64 60 58 63 64 63 65 78 72 83 80 86 91 62 47 31 50 47 52 49 50 52 52
75 83 87 89 87 84 90 95 92 86 82 58 54 58 63 67 68 64 63 68 68 66 64 59 58 63 58 71 77 79 75 79 86 85 89 52 45 51 47 52 44 49 48 53
76 80 84 88 85 84 94 96 95 94 84 72 55 56 58 65 70 68 74 73 69 68 67 60 54 56 58 76 82 78 81 79 74 88 87 57 39 50 48 46 49 51 50 56
80 74 81 86 84 83 90 94 92 95 90 85 70 56 59 61 66 67 79 80 76 70 76 68 68 68 54 62 77 88 90 89 93 88 88 72 52 45 47 52 44 59 55 56
83 77 80 85 85 82 88 93 91 87 93 87 78 72 68 62 67 67 70 69 76 81 72 70 73 75 58 62 69 82 84 92 97 90 91 82 50 50 44 44 63 55 56 57
84 84 82 85 85 81 87 96 91 89 82 78 82 79 82 82 78 72 80 66 79 71 79 88 81 69 70 59 54 78 67 61 75 74 68 50 52 54 54 54 54 56 59 61
86 86 88 87 83 78 82 95 95 95 93 86 92 89 80 68 74 74 75 81 68 77 78 81 78 71 70 69 70 67 57 61 67 66 55 57 52 57 54 55 56 58 60 61
86 86 89 90 86 83 83 95 96 91 91 88 80 72 82 78 74 76 79 74 78 83 87 81 83 78 67 76 69 67 54 60 62 65 56 58 59 54 55 58 57 55 56 54
86 86 90 92 89 86 92 97 96 94 82 84 92 84 82 81 78 82 81 77 84 90 87 96 92 92 89 89 87 85 56 61 63 54 51 50 50 54 54 54 54 53 49 44
88 88 92 94 91 87 90 94 95 92 92 94 86 90 88 85 83 84 86 87 90 93 91 93 94 87 87 95 95 66 60 59 55 50 64 58 60 57 52 51 51 47 43 38
89 90 94 94 92 92 88 88 88 84 90 93 86 96 90 83 84 88 91 91 94 93 93 96 94 90 90 96 97 60 62 64 59 63 57 60 56 54 47 44 42 45 41 41
90 93 96 95 91 88 89 89 83 89 93 94 94 91 95 87 92 94 92 96 95 94 94 96 97 92 95 98 77 72 69 70 61 56 54 57 51 46 42 43 43 43 42 42
92 96 97 98 98 99 97 85 82 90 86 95 99 89 85 91 96 93 92 94 98 94 99 98 94 96 97 86 78 75 72 74 68 59 51 54 49 45 44 43 45 45 44 44
97 94 98 100 99 92 88 93 96 97 95 98 98 95 98 93 96 97 96 95 98 100 94 95 99 95 76 69 64 63 64 66 60 72 62 59 57 50 46 44 44 44 47 51
98 99 99 99 91 93 97 100 99 99 99 99 98 95 98 91 96 97 95 99 99 98 92 97 95 96 77 67 73 67 67 70 54 53 52 49 50 54 46 44 47 53 58 64
92 95 96 97 99 100 98 98 99 98 97 98 99 97 94 95 94 97 99 98 99 98 96 97 93 87 76 76 72 59 57 52 50 47 49 47 44 46 46 49 59 61 63 72
93 95 99 99 99 98 98 97 98 100 97 99 98 99 96 97 96 99 98 98 96 95 93 92 92 81 72 77 71 59 51 48 48 48 46 44 44 47 53 53 54 54 56 56
100 99 98 97 98 96 93 92 93 93 97 96 98 98 96 97 98 98 98 90 96 99 96 95 94 83 74 74 77 56 55 48 48 69 70 58 57 59 59 60 58 60 59 62
99 99 97 98 95 99 99 98 98 100 92 93 98 99 96 100 98 97 96 98 96 87 93 94 92 79 70 66 71 67 64 61 72 67 81 80 83 79 74 72 72 71 73 75
98 98 97 93 98 100 100 100 98 98 92 96 95 98 100 99 92 98 90 95 95 88 96 94 83 73 69 64 64 63 62 62 62 64 69 77 80 75 73 73 75 75 75 74
98 98 94 96 95 95 96 93 99 95 87 99 97 99 96 96 100 99 96 96 93 96 97 95 78 75 74 69 66 65 64 63 62 64 66 71 74 88 91 82 66 74 74 83

GFSNW_sfc_rhum_147.txt.gz
RH
87 87 85 82 85 78 86 93 62 73 73 76 93 85 74 61 61 59 59 59 58 54 59 59 69 70 66 62 67 59 72 65 83 57 72 72 62 61 59 55 45 67 60 51
89 88 86 84 83 79 93 91 84 82 63 81 89 75 71 70 66 65 60 58 56 55 60 62 74 76 66 64 67 71 63 56 72 48 52 67 75 70 53 55 64 63 46 32
89 88 88 86 82 82 89 84 77 70 77 76 67 71 71 68 68 64 61 61 57 53 57 60 76 78 69 68 69 64 56 62 45 44 42 55 68 63 68 56 85 58 53 40
85 87 89 88 86 79 86 79 69 79 71 62 69 68 73 68 62 64 61 63 60 56 69 70 77 81 78 69 69 73 53 46 75 64 54 61 56 52 67 69 62 54 48 51
77 88 90 90 89 76 84 65 69 74 72 66 67 70 70 62 68 63 70 67 59 64 64 51 53 73 76 71 80 77 73 57 80 75 64 69 67 63 61 64 60 62 56 54
72 87 89 90 89 78 90 94 85 65 62 65 59 61 64 59 57 64 60 58 62 70 62 68 72 68 67 70 70 76 76 78 81 58 75 61 40 46 55 60 63 51 57 39
70 82 87 90 88 82 87 92 87 72 69 61 48 57 57 63 63 57 63 66 60 68 62 59 64 54 66 72 81 77 82 79 83 89 59 48 30 49 47 55 49 53 52 53
69 81 83 88 86 79 88 96 91 86 83 66 58 63 66 70 72 72 65 71 72 69 60 57 55 62 63 76 82 81 79 82 85 86 86 50 39 56 52 50 41 48 46 51
77 78 81 86 86 83 92 96 95 92 79 67 59 61 70 68 70 70 78 77 72 67 64 58 56 54 57 71 83 81 84 79 72 88 87 57 36 51 50 48 46 54 52 58
80 78 79 84 86 84 89 94 92 93 83 83 67 57 62 65 71 70 81 79 76 72 74 62 62 62 58 61 72 91 90 89 92 88 89 70 53 47 48 60 46 60 56 60
83 83 77 82 86 84 89 93 92 88 91 84 81 70 66 67 70 67 71 69 76 81 68 69 69 74 65 68 70 83 84 93 97 91 92 84 52 55 47 44 65 59 60 58
85 85 82 82 85 84 87 95 94 91 83 77 87 83 81 80 75 71 83 66 79 72 76 84 84 74 76 62 59 80 65 61 73 78 72 53 54 49 50 56 55 58 59 61
86 86 84 84 84 80 82 95 95 94 92 87 93 89 82 72 76 76 74 82 71 78 76 82 82 74 70 68 69 69 65 66 69 69 52 59 54 56 54 55 54 56 58 62
86 86 87 87 87 84 85 95 96 89 90 89 80 75 83 80 76 80 81 76 85 84 85 83 83 81 68 74 68 65 54 65 67 70 57 60 54 59 57 57 61 61 63 60
87 86 87 88 90 87 90 97 96 94 81 87 90 87 84 83 82 83 84 81 85 90 90 96 89 90 88 92 88 86 59 60 67 64 51 52 51 56 56 58 61 60 56 53
89 87 88 91 92 87 86 92 96 95 90 93 91 90 89 86 85 84 87 88 91 93 90 92 93 88 88 94 95 70 59 57 55 56 69 58 57 58 60 56 56 53 46 42
94 90 89 93 93 90 87 91 86 88 92 90 88 94 91 86 87 88 89 91 95 93 93 95 94 92 92 96 97 65 68 68 65 63 66 61 57 58 50 49 48 47 40 40
95 94 91 94 92 89 90 91 85 90 94 93 95 89 94 87 94 95 94 95 95 94 94 96 98 94 96 98 83 79 77 73 71 65 60 55 53 50 44 46 48 43 41 40
97 95 96 99 99 99 97 85 84 89 84 94 96 88 83 92 97 95 95 95 98 95 99 98 95 97 98 85 85 84 79 76 72 67 52 54 52 46 45 43 41 39 39 38
97 98 99 100 99 92 89 94 97 99 94 98 96 92 98 91 97 97 96 97 99 99 92 96 99 93 84 79 76 72 72 73 76 74 64 61 62 53 45 42 39 35 38 44
100 99 99 99 92 94 98 100 100 99 99 99 98 92 98 92 95 94 93 99 97 99 90 97 92 97 84 74 74 75 66 69 76 58 53 54 55 56 48 44 43 46 49 53
93 95 96 98 99 100 99 98 99 98 96 98 98 95 90 96 94 97 99 98 98 97 94 91 92 86 79 82 81 63 56 57 55 52 51 49 48 46 40 42 56 56 59 68
96 96 100 100 99 98 98 97 98 99 98 99 98 99 94 98 95 97 98 98 94 96 93 87 92 82 78 78 79 60 54 51 50 48 47 44 44 50 52 49 50 52 56 56
100 98 98 98 98 95 94 92 93 93 96 97 98 99 96 97 98 98 96 89 92 98 98 94 94 82 77 79 81 58 58 50 52 68 73 64 58 60 62 64 63 64 65 65
99 100 97 98 96 99 99 97 97 100 88 92 98 98 97 99 98 92 96 98 92 86 90 93 93 79 73 71 73 70 70 67 77 68 79 81 84 78 74 71 75 78 78 76
99 98 97 94 99 100 99 99 98 96 84 93 94 98 100 97 96 99 90 94 95 88 95 94 82 79 71 64 61 61 62 64 63 66 72 80 78 70 69 74 76 73 74 72
98 98 97 96 96 97 98 90 92 86 87 97 97 97 92 97 100 100 96 96 92 94 98 95 79 72 69 68 68 67 66 66 66 70 70 75 82 91 90 81 65 75 75 82

GFSNW_sfc_rhum_150.txt.gz
RH
86 86 85 85 83 80 84 90 63 72 73 75 94 86 72 65 66 63 61 59 56 62 60 65 71 69 67 67 73 64 73 60 79 62 76 75 71 70 59 52 44 68 57 52
87 86 86 85 84 81 92 89 87 82 59 80 89 75 70 72 67 67 62 64 60 57 64 60 72 75 68 68 68 68 60 52 70 47 53 69 78 74 56 57 64 68 52 32
79 88 87 86 86 80 88 77 77 69 77 77 69 71 73 71 68 66 63 62 58 55 65 70 75 78 72 73 72 65 52 62 40 38 40 58 74 68 66 55 82 54 50 38
73 87 88 88 87 80 82 76 77 81 74 63 71 70 72 67 58 66 63 62 59 57 67 70 77 81 78 76 71 74 48 47 76 70 55 65 62 52 71 66 55 47 46 44
72 84 88 90 89 78 82 65 67 75 76 69 66 67 75 62 70 65 69 67 62 67 58 55 66 76 77 71 75 76 70 57 79 71 68 71 67 64 62 68 66 68 56 56
74 78 87 89 89 78 87 95 87 64 65 67 60 61 68 62 62 66 65 67 67 69 66 70 73 71 70 70 69 74 71 73 74 52 73 56 39 49 61 63 68 56 61 38
81 76 84 88 89 82 86 91 85 72 69 62 50 60 61 64 66 60 68 68 66 73 64 63 63 56 76 77 84 78 79 76 81 87 52 45 29 46 47 54 53 56 51 50
81 75 81 86 87 80 88 96 90 82 77 68 61 64 69 74 72 74 69 77 75 70 57 54 53 58 62 76 84 81 78 80 86 84 83 46 50 58 54 50 41 49 50 49
81 79 79 83 86 83 92 96 95 90 77 61 59 62 74 70 74 72 81 79 76 66 63 55 59 59 56 67 83 84 83 79 72 87 84 58 50 63 51 54 46 52 55 54
83 82 77 82 86 83 90 95 93 94 84 79 68 59 63 66 72 70 82 80 78 70 70 60 62 63 66 63 72 92 91 90 92 87 89 72 53 49 52 60 41 57 60 59
84 83 82 78 85 84 89 94 93 89 91 84 83 71 66 70 71 69 73 68 75 78 67 67 67 65 64 69 71 85 85 94 97 92 94 86 55 57 46 41 63 58 58 60
86 84 84 82 83 83 86 95 95 93 85 79 90 83 83 81 78 71 85 70 78 72 74 78 81 76 78 63 60 81 66 64 77 77 71 55 55 49 54 55 54 56 61 58
88 86 86 84 84 81 83 95 95 93 92 88 92 89 84 75 81 82 75 87 78 79 75 82 83 74 72 71 70 69 66 67 66 65 49 60 57 58 57 58 57 55 58 58
89 87 86 87 86 86 85 95 96 89 90 90 82 77 84 82 79 81 82 78 86 86 87 86 88 81 69 75 68 63 56 66 67 73 58 60 54 60 58 58 60 59 65 63
93 89 87 88 87 89 89 92 96 92 84 89 88 88 86 85 82 84 84 82 86 92 89 95 88 89 86 93 90 90 65 60 68 68 55 54 54 58 59 60 59 63 64 64
95 95 90 90 91 88 86 92 97 96 90 93 94 90 90 86 86 86 88 90 92 92 88 92 92 88 89 95 96 73 62 57 58 64 77 64 61 62 62 62 62 62 57 53
88 96 94 91 93 93 88 92 85 91 88 86 90 93 91 89 90 93 94 92 96 93 92 95 94 92 93 96 98 67 65 80 79 78 74 70 66 62 56 58 56 49 41 40
82 90 96 95 92 90 94 92 88 90 93 92 94 91 92 88 95 96 96 97 96 95 94 97 98 95 97 98 86 83 80 78 75 79 74 64 59 56 53 52 44 44 41 39
80 88 97 99 99 100 98 89 86 89 86 95 97 90 86 93 97 96 96 95 97 96 97 98 95 95 97 86 85 85 84 80 73 73 76 61 59 55 51 49 44 40 40 36
82 97 100 100 99 92 87 97 98 99 96 99 96 93 96 95 97 98 97 97 98 97 90 96 99 90 84 84 81 81 74 76 84 91 83 70 67 59 50 46 40 35 36 41
98 99 100 99 92 96 98 100 100 100 100 99 97 84 97 94 96 96 94 98 95 100 91 96 93 92 89 81 78 78 74 66 71 84 77 63 63 63 51 47 43 44 46 50
92 93 96 99 100 100 99 98 99 99 95 99 98 95 88 96 93 94 98 99 98 99 94 91 92 90 78 82 83 72 60 62 61 59 59 59 57 53 47 44 57 58 60 74
94 95 100 100 99 98 98 97 99 99 99 98 98 99 94 99 95 97 98 99 95 96 96 93 92 80 79 81 83 62 56 54 51 50 49 46 46 48 51 52 54 57 59 59
100 98 98 98 98 96 96 94 93 93 97 97 94 99 96 94 96 95 97 91 89 96 99 95 94 85 79 81 81 60 60 51 50 66 75 69 60 59 62 66 68 70 70 67
99 100 97 97 92 99 98 98 98 99 88 90 98 97 94 99 98 91 97 99 96 94 92 92 93 81 80 81 76 72 73 70 80 74 82 84 88 79 71 68 72 76 78 80
100 99 99 95 97 100 98 98 96 98 84 92 91 98 98 100 97 97 97 95 95 88 94 93 83 80 73 62 60 61 63 65 64 68 75 84 82 73 72 76 78 76 76 76
99 98 98 95 98 97 98 95 91 79 78 94 97 92 84 96 99 100 94 94 91 92 95 94 78 69 61 63 65 66 68 70 72 76 74 82 84 93 91 81 66 75 75 81

GFSNW_sfc_rhum_153.txt.gz
RH
80 85 85 84 84 83 82 87 69 71 70 74 94 84 77 68 69 65 61 63 58 59 64 66 71 66 74 70 71 62 70 56 73 56 71 69 64 58 47 41 39 59 47 44
75 86 85 85 85 82 92 87 85 79 60 79 88 77 73 73 66 70 65 63 58 58 66 64 76 78 71 71 70 68 56 48 67 46 50 64 73 67 52 53 58 60 44 26
76 80 88 87 85 80 87 70 74 69 77 79 67 70 73 70 70 70 65 64 57 55 59 67 76 76 72 72 75 63 49 60 37 34 39 58 68 69 59 51 70 47 46 32
78 79 87 89 87 82 80 79 78 84 71 65 73 70 70 59 57 68 64 65 61 64 66 68 77 81 76 70 70 71 46 44 68 59 54 60 57 50 71 58 50 39 35 39
80 80 86 89 89 79 85 68 66 75 79 72 67 69 76 61 74 66 66 63 65 68 64 60 57 74 75 68 70 76 63 62 70 63 64 66 63 60 61 67 66 64 59 54
82 76 85 89 89 77 86 96 88 65 68 68 59 63 72 63 61 73 70 70 68 68 71 72 75 76 76 72 65 73 65 70 66 45 66 54 34 40 64 63 66 60 57 35
80 76 82 88 89 81 89 94 88 73 70 65 50 62 70 72 70 67 74 70 66 74 69 65 63 67 78 79 85 76 71 71 76 78 46 42 26 36 42 50 48 57 52 47
81 80 79 86 86 80 91 96 92 87 78 74 65 66 71 75 72 74 74 78 77 71 59 53 52 57 62 80 85 83 77 73 85 77 76 43 42 49 48 45 39 46 51 47
81 80 79 82 86 80 92 97 96 92 79 57 67 66 74 69 74 72 82 80 75 63 61 53 62 59 57 64 82 85 79 77 67 79 71 52 41 49 49 49 42 42 51 52
82 82 82 79 86 81 90 96 93 93 86 80 71 65 66 72 74 72 83 81 79 72 68 57 59 63 61 58 69 90 91 91 89 81 82 67 52 48 50 46 38 49 55 53
85 83 82 80 84 82 88 95 94 86 90 84 84 77 72 73 74 70 75 72 77 80 68 67 70 65 63 70 70 83 81 92 96 91 93 80 55 53 44 38 52 55 56 56
88 85 83 84 84 83 85 95 96 93 85 78 90 85 82 78 75 72 85 71 79 74 77 81 80 75 84 70 63 81 68 65 75 75 68 55 55 50 50 51 51 53 56 53
90 88 85 85 85 83 82 95 96 93 92 88 91 91 85 79 80 82 74 88 80 79 77 80 80 73 75 74 74 72 66 68 68 62 51 63 59 58 57 58 55 56 56 56
94 91 88 86 87 87 84 95 96 89 90 91 82 78 85 83 82 82 81 79 88 86 89 87 88 81 71 78 70 64 57 69 70 74 61 58 57 61 59 57 60 62 63 62
89 96 91 87 88 90 90 92 93 88 85 90 89 88 86 86 85 85 86 85 88 93 91 95 89 90 85 93 91 89 68 66 68 65 56 56 58 60 62 62 62 62 65 67
83 91 96 91 91 89 88 97 97 95 84 94 96 88 91 87 86 87 89 90 92 93 90 92 92 88 88 95 96 74 69 61 60 62 77 72 68 68 66 63 62 63 69 62
77 86 91 97 94 89 89 86 84 92 83 87 93 93 91 90 91 95 95 92 95 93 93 95 93 92 93 96 98 72 70 72 79 81 82 78 75 68 63 58 59 53 46 44
72 76 86 94 94 92 97 94 90 89 88 89 95 93 91 89 96 96 97 97 96 95 94 98 97 97 96 98 89 86 82 81 79 78 78 73 69 66 58 56 48 48 45 44
73 77 82 98 99 100 99 90 86 90 83 96 98 93 90 93 98 97 97 96 97 95 97 98 96 92 97 89 86 84 84 83 78 77 82 83 76 67 62 54 50 46 45 40
79 93 100 100 99 94 90 98 99 100 98 100 98 95 98 95 98 98 97 97 98 98 92 96 99 87 81 84 86 86 82 75 82 93 83 82 78 68 60 54 48 44 39 42
95 99 99 99 94 98 98 100 100 99 100 99 97 86 97 95 96 98 95 96 95 100 94 95 93 92 88 84 79 78 82 75 70 76 79 84 78 71 61 50 46 43 46 51
92 93 95 98 99 100 100 99 99 99 96 99 98 93 90 93 91 93 98 98 98 98 94 92 94 88 80 83 82 80 63 63 62 65 68 60 60 63 53 50 59 58 62 74
95 97 100 99 99 98 98 96 99 99 99 99 97 99 96 99 95 98 98 100 96 96 99 94 91 80 79 83 83 64 57 55 50 49 47 48 50 49 51 54 58 63 66 64
100 100 99 98 99 96 94 94 94 95 98 96 94 99 95 96 98 97 96 92 93 98 98 95 93 84 80 85 80 59 52 50 50 73 74 66 61 61 64 62 66 68 68 65
100 100 97 98 90 99 99 98 98 99 89 91 96 97 92 98 98 96 95 98 97 94 93 91 93 83 85 86 77 67 68 68 78 74 83 84 87 77 71 70 71 73 75 76
100 100 99 95 99 100 100 99 100 97 85 94 95 97 98 97 97 98 94 94 94 88 94 94 86 87 85 79 71 63 61 63 63 68 75 86 88 76 74 79 80 77 75 77
100 98 93 97 98 98 94 94 93 87 83 93 95 97 92 97 98 98 95 94 91 93 95 96 83 75 64 58 57 59 63 70 73 76 75 88 89 94 93 86 70 74 76 84

GFSNW_sfc_rhum_156.txt.gz
RH
78 78 83 84 83 83 70 65 57 59 53 52 53 63 53 63 49 49 46 43 40 38 40 42 42 39 48 50 51 41 41 30 44 37 49 49 43 34 26 22 29 32 26 24
80 80 83 84 83 82 67 53 53 57 53 60 58 53 54 56 49 52 47 47 42 41 44 42 47 51 51 53 50 40 34 33 44 35 39 46 44 43 36 31 32 33 22 13
83 82 86 86 84 82 58 44 67 44 48 49 40 42 45 48 53 50 47 45 40 38 41 45 47 48 55 54 55 62 42 35 25 21 27 37 43 48 39 30 40 22 20 13
84 82 86 88 87 79 57 51 56 58 58 43 45 43 43 39 40 46 42 42 42 38 36 37 46 52 50 51 56 46 31 35 48 36 36 40 40 38 48 40 28 23 17 23
82 81 86 89 88 73 59 48 46 50 49 50 38 50 49 43 51 44 41 43 45 39 36 38 36 45 41 40 42 45 39 52 45 51 45 44 42 33 35 40 39 39 35 33
81 81 84 89 87 70 57 70 60 46 56 42 34 42 47 47 45 50 48 44 43 44 50 46 48 47 50 48 42 46 40 45 43 33 40 34 29 22 33 37 39 33 27 20
80 80 81 88 87 75 60 66 58 48 47 43 36 45 46 48 47 45 51 45 38 53 45 44 40 46 50 50 55 48 42 42 50 56 31 45 22 25 30 31 28 32 32 29
80 80 80 84 86 78 67 76 63 55 46 52 47 46 50 50 50 53 52 57 53 45 39 38 38 37 40 52 62 59 47 42 52 54 40 28 31 33 34 31 28 28 31 29
82 80 78 83 84 79 69 80 79 62 48 40 45 47 48 44 46 51 61 58 52 44 40 36 41 36 37 43 56 61 56 46 41 48 50 34 26 32 32 32 29 28 34 34
84 81 80 80 85 80 72 80 82 71 60 55 46 44 45 48 49 45 58 59 56 49 42 41 41 44 41 38 44 60 63 62 58 48 51 37 29 34 36 34 31 33 36 35
86 84 82 81 84 82 74 82 81 67 67 59 64 51 51 54 50 44 57 55 58 53 47 44 45 43 38 41 41 51 48 58 59 59 64 62 38 40 34 29 34 35 36 36
90 87 84 84 84 83 79 82 84 77 68 65 79 70 67 65 56 50 63 53 55 48 50 52 48 46 48 40 35 53 46 42 41 46 38 42 38 35 32 34 36 38 41 39
93 89 86 85 86 84 78 81 83 76 75 69 74 72 68 64 63 65 56 62 60 59 57 50 52 54 49 48 46 42 42 45 44 40 31 40 37 34 36 36 39 40 42 45
90 94 90 86 88 87 80 82 82 70 71 78 64 66 68 66 65 65 66 64 68 64 66 63 58 54 49 47 49 44 40 47 45 44 38 36 36 38 39 43 44 45 44 46
83 88 94 92 89 90 83 85 82 72 71 80 72 72 71 70 68 68 68 67 67 63 70 75 64 61 59 65 64 56 42 39 44 36 34 35 35 40 47 48 46 46 48 49
76 82 88 94 93 90 88 93 89 83 71 87 90 72 77 75 72 74 74 71 70 67 63 67 63 69 66 72 67 48 42 39 37 38 43 48 49 50 48 47 46 45 49 50
71 74 82 89 96 91 92 87 73 85 74 85 96 87 79 77 78 78 77 77 77 70 70 75 68 70 77 76 60 38 43 45 49 53 56 56 54 48 48 46 43 44 38 38
66 69 73 83 94 94 97 94 87 78 79 84 100 92 79 76 82 83 80 80 78 81 76 79 80 78 82 92 62 58 57 58 58 57 56 53 53 54 52 45 43 38 35 33
72 75 76 93 99 100 99 92 85 85 80 97 94 97 94 80 87 83 82 78 87 83 87 82 83 81 96 71 64 62 62 60 56 62 60 58 62 58 56 52 44 40 35 33
76 88 98 100 99 96 92 98 99 100 99 100 99 82 87 84 85 88 86 83 85 96 79 90 96 82 65 60 61 60 63 63 62 84 72 64 69 58 51 47 41 37 34 32
89 95 98 99 94 98 98 100 100 99 100 99 96 81 86 80 87 83 81 90 87 98 84 88 85 82 65 64 67 63 57 57 59 61 58 60 65 69 57 43 40 37 37 43
93 94 93 96 98 100 100 98 99 99 96 99 96 82 78 84 76 83 91 89 92 96 82 93 92 74 67 72 64 61 51 48 51 55 57 49 47 51 47 43 55 53 55 65
91 97 100 100 100 99 98 98 99 100 98 98 96 97 86 93 89 91 93 98 95 85 95 87 78 66 62 67 68 56 46 46 43 41 43 39 40 41 39 42 44 44 44 43
100 99 100 97 95 94 89 84 89 87 94 93 86 96 89 89 95 91 97 91 82 98 96 89 77 66 60 63 60 46 48 42 47 70 68 60 55 50 50 48 47 48 48 47
99 99 96 97 84 93 92 94 89 90 83 85 89 92 82 96 97 94 92 96 94 87 86 80 75 68 69 68 60 43 44 52 64 61 73 83 75 60 51 50 53 54 54 52
100 100 98 90 94 92 98 96 98 90 83 83 83 95 97 97 92 95 93 89 91 82 89 78 65 73 70 66 56 51 48 45 48 56 63 71 70 62 57 60 59 54 52 56
100 98 90 88 93 91 91 80 84 81 83 91 92 98 92 94 95 94 86 91 82 81 79 75 70 70 64 58 52 50 51 50 50 55 57 68 74 83 81 73 55 62 64 72

GFSNW_sfc_rhum_162.txt.gz
RH
83 81 80 80 84 86 83 76 76 69 61 71 55 70 55 59 45 45 46 45 43 40 37 40 40 44 53 46 48 41 36 40 72 50 49 47 51 44 34 48 43 41 41 58
86 86 83 81 83 81 78 66 53 68 63 74 67 56 48 48 46 46 45 44 43 39 42 52 44 48 47 49 52 59 52 41 73 64 57 51 53 42 36 30 46 41 41 34
86 86 85 85 84 80 83 62 79 61 54 47 45 47 46 50 56 47 42 40 39 36 36 39 46 50 56 53 53 63 58 39 43 56 66 48 54 47 42 38 68 41 35 28
85 85 85 85 87 83 80 60 63 61 66 48 43 44 40 41 48 43 39 43 39 37 38 37 44 45 49 50 55 48 44 57 54 44 44 44 45 46 45 47 44 44 38 36
84 84 84 86 87 84 73 71 62 52 45 42 42 53 47 42 46 50 42 46 39 41 46 48 48 48 47 48 40 43 38 62 59 61 44 44 48 38 41 44 42 42 41 37
84 82 82 86 87 81 64 63 57 58 58 42 42 51 50 48 46 54 45 46 44 52 56 50 52 49 48 52 51 43 41 54 66 60 40 40 48 37 36 39 38 35 34 38
85 80 80 85 87 82 72 71 70 65 50 46 42 47 46 48 51 53 48 49 48 60 49 44 46 52 49 48 53 46 42 47 66 83 64 68 35 31 34 34 33 33 32 34
86 81 78 81 85 81 73 71 77 70 59 47 43 47 49 50 53 56 55 57 55 48 51 58 52 55 54 56 58 58 51 50 69 81 63 41 33 37 38 40 42 32 31 34
89 84 78 78 83 80 76 83 83 78 72 54 42 47 50 52 52 60 63 60 52 57 55 50 66 52 49 65 73 66 57 52 60 59 64 56 42 38 36 39 47 38 36 40
93 86 80 80 82 81 83 86 80 87 73 57 53 54 54 50 53 58 63 64 66 60 60 62 59 56 49 53 65 75 74 68 72 65 66 53 40 39 41 53 44 41 42 46
94 88 83 81 82 81 86 89 80 86 79 68 64 53 58 57 57 58 66 66 66 67 67 63 61 63 51 55 48 63 60 72 76 65 72 68 41 45 44 44 47 43 48 51
96 91 86 83 83 82 82 88 77 72 88 81 71 70 67 70 68 70 64 66 57 68 68 68 65 62 54 48 46 60 54 47 53 52 58 45 42 44 44 44 46 52 54 55
96 93 89 86 85 81 82 88 86 87 85 85 80 80 72 61 66 65 77 68 64 62 69 70 70 70 57 62 55 60 48 48 54 47 40 49 44 41 39 42 50 51 55 57
86 93 94 89 87 87 82 86 87 86 82 92 80 61 74 68 65 68 68 68 66 65 76 79 74 68 54 57 55 56 52 51 51 50 42 40 40 44 42 47 52 55 56 56
76 81 88 94 93 91 90 91 86 80 87 94 85 71 76 68 68 74 73 70 71 78 86 90 87 74 68 68 75 74 49 52 52 52 36 41 50 48 52 56 61 57 59 58
70 73 76 85 92 94 94 98 92 83 79 96 99 79 82 77 74 76 76 77 78 83 84 88 80 73 77 89 85 52 39 38 36 37 54 49 53 54 58 60 56 56 58 59
69 68 72 74 91 97 97 92 88 84 84 94 99 97 87 82 81 81 82 82 88 90 88 89 83 80 84 93 85 48 42 41 46 52 54 62 61 64 56 56 58 52 53 46
75 69 71 72 78 97 99 95 89 89 90 93 100 98 94 86 89 95 86 91 90 92 93 90 90 89 91 98 72 55 49 60 62 57 58 62 61 62 64 61 60 58 54 46
77 77 75 92 97 99 100 91 90 93 91 100 100 100 98 89 92 93 92 90 97 94 97 92 88 91 97 75 67 63 59 63 66 64 64 64 67 69 65 67 68 68 60 44
77 87 94 93 99 95 94 99 100 100 100 100 100 93 95 91 95 95 95 93 96 94 88 90 98 82 67 61 61 64 62 64 69 86 84 78 77 71 71 62 55 53 49 43
89 91 98 99 95 98 98 100 100 100 100 99 99 93 93 87 96 94 88 97 97 97 91 93 88 89 73 58 64 62 62 66 71 69 66 68 71 77 69 55 52 48 48 51
94 97 94 97 98 100 100 98 100 99 98 99 99 94 85 90 82 93 96 97 96 96 89 92 92 83 73 69 73 77 72 70 64 64 67 70 69 76 66 55 64 64 65 70
91 95 100 100 99 99 99 96 97 99 99 99 97 97 88 91 93 96 98 99 97 94 92 89 90 81 68 77 75 71 60 60 63 65 58 57 55 56 54 56 56 59 54 50
100 92 97 95 97 86 96 100 100 99 98 98 94 98 97 94 98 99 97 95 94 98 98 94 92 73 68 76 75 66 67 63 67 79 71 64 62 60 58 54 51 52 53 56
100 100 90 96 92 96 97 97 99 97 93 95 97 98 95 99 99 99 97 100 95 92 93 93 92 74 72 77 66 62 62 67 74 73 86 87 81 61 56 58 62 63 64 64
99 99 96 90 97 99 97 98 98 96 94 99 100 100 99 98 99 98 95 94 94 90 96 97 85 73 76 76 58 54 54 60 64 71 75 86 84 68 69 69 66 63 63 64
88 97 93 96 97 98 98 91 90 89 98 99 99 98 98 99 99 98 94 95 97 97 97 94 81 79 78 70 56 58 55 54 58 64 69 79 92 90 88 81 62 69 71 82